Tabellarische Ansicht des 17.11.2019


Die einzelnen Werte des Tages

Uhrzeit Temperatur Luftdruck Luftfeuchte Wind Hi-Wind Taupunkt THW Index Wind Chill Heat Index Solar- strahlung Regen

00:00

2.3 C

1009.4 hpa

90 %

4.8 km/h aus 114

6.4 km/h aus ESE

0.8 C

1.1 C

1.1 C

2.2 C

0 W/m

0.00 mm

00:05

2.2 C

1009.4 hpa

90 %

4.8 km/h aus 114

6.4 km/h aus SE

0.7 C

0.9 C

0.9 C

2.1 C

0 W/m

0.00 mm

00:10

2.1 C

1009.4 hpa

90 %

3.2 km/h aus 118

6.4 km/h aus SSE

0.6 C

1.6 C

1.7 C

2.0 C

0 W/m

0.00 mm

00:15

2.0 C

1009.3 hpa

90 %

4.8 km/h aus 117

8.0 km/h aus S

0.5 C

0.7 C

0.8 C

1.9 C

0 W/m

0.00 mm

00:20

2.1 C

1009.3 hpa

91 %

6.4 km/h aus 117

9.7 km/h aus SSE

0.7 C

0.2 C

0.2 C

2.0 C

0 W/m

0.00 mm

00:25

2.1 C

1009.3 hpa

91 %

1.6 km/h aus 116

4.8 km/h aus SE

0.7 C

2.0 C

2.1 C

2.0 C

0 W/m

0.00 mm

00:30

2.0 C

1009.4 hpa

91 %

0.0 km/h aus 116

1.6 km/h aus SE

0.7 C

1.9 C

2.0 C

1.9 C

0 W/m

0.00 mm

00:35

1.9 C

1009.4 hpa

90 %

0.0 km/h aus 114

0.0 km/h aus ---

0.5 C

1.9 C

1.9 C

1.9 C

0 W/m

0.00 mm

00:40

1.9 C

1009.4 hpa

90 %

0.0 km/h aus 113

0.0 km/h aus ---

0.4 C

1.8 C

1.9 C

1.8 C

0 W/m

0.00 mm

00:45

1.8 C

1009.8 hpa

90 %

0.0 km/h aus 116

0.0 km/h aus ---

0.4 C

1.8 C

1.8 C

1.8 C

0 W/m

0.00 mm

00:50

1.8 C

1009.8 hpa

91 %

0.0 km/h aus 117

3.2 km/h aus S

0.5 C

1.7 C

1.8 C

1.7 C

0 W/m

0.00 mm

00:55

1.7 C

1009.8 hpa

91 %

0.0 km/h aus 117

1.6 km/h aus S

0.4 C

1.7 C

1.7 C

1.7 C

0 W/m

0.00 mm

01:00

1.6 C

1010.0 hpa

91 %

0.0 km/h aus 116

1.6 km/h aus SSW

0.3 C

1.6 C

1.6 C

1.6 C

0 W/m

0.00 mm

01:05

1.6 C

1010.0 hpa

90 %

1.6 km/h aus 117

4.8 km/h aus ESE

0.1 C

1.5 C

1.6 C

1.5 C

0 W/m

0.00 mm

01:10

1.4 C

1010.0 hpa

90 %

9.7 km/h aus 117

17.7 km/h aus SE

0.0 C

-1.6 C

-1.5 C

1.4 C

0 W/m

0.00 mm

01:15

1.5 C

1009.9 hpa

91 %

11.3 km/h aus 113

17.7 km/h aus SSE

0.2 C

-1.8 C

-1.8 C

1.4 C

0 W/m

0.00 mm

01:20

1.6 C

1009.9 hpa

91 %

4.8 km/h aus 115

8.0 km/h aus SSE

0.2 C

0.2 C

0.3 C

1.5 C

0 W/m

0.00 mm

01:25

1.6 C

1009.9 hpa

91 %

1.6 km/h aus 115

4.8 km/h aus S

0.2 C

1.5 C

1.6 C

1.5 C

0 W/m

0.00 mm

01:30

1.6 C

1009.9 hpa

91 %

1.6 km/h aus 117

3.2 km/h aus S

0.2 C

1.5 C

1.6 C

1.5 C

0 W/m

0.00 mm

01:35

1.6 C

1009.9 hpa

91 %

1.6 km/h aus 117

3.2 km/h aus S

0.2 C

1.5 C

1.6 C

1.5 C

0 W/m

0.00 mm

01:40

1.6 C

1009.9 hpa

91 %

3.2 km/h aus 117

8.0 km/h aus ESE

0.2 C

1.1 C

1.1 C

1.5 C

0 W/m

0.00 mm

01:45

1.5 C

1010.1 hpa

91 %

3.2 km/h aus 116

6.4 km/h aus ESE

0.2 C

1.0 C

1.1 C

1.4 C

0 W/m

0.00 mm

01:50

1.5 C

1010.1 hpa

91 %

4.8 km/h aus 117

6.4 km/h aus E

0.2 C

0.2 C

0.2 C

1.4 C

0 W/m

0.00 mm

01:55

1.5 C

1010.1 hpa

91 %

3.2 km/h aus 115

14.5 km/h aus E

0.2 C

1.0 C

1.1 C

1.4 C

0 W/m

0.00 mm

02:00

1.5 C

1010.2 hpa

91 %

1.6 km/h aus 113

3.2 km/h aus E

0.2 C

1.4 C

1.5 C

1.4 C

0 W/m

0.00 mm

02:05

1.4 C

1010.2 hpa

91 %

3.2 km/h aus 116

8.0 km/h aus ESE

0.1 C

0.9 C

1.0 C

1.4 C

0 W/m

0.00 mm

02:10

1.5 C

1010.2 hpa

92 %

4.8 km/h aus 117

8.0 km/h aus E

0.3 C

0.2 C

0.2 C

1.4 C

0 W/m

0.00 mm

02:15

1.5 C

1010.3 hpa

92 %

4.8 km/h aus 117

9.7 km/h aus ESE

0.3 C

0.2 C

0.2 C

1.4 C

0 W/m

0.00 mm

02:20

1.4 C

1010.3 hpa

92 %

8.0 km/h aus 116

14.5 km/h aus SE

0.3 C

-1.1 C

-1.1 C

1.4 C

0 W/m

0.00 mm

02:25

1.5 C

1010.3 hpa

92 %

9.7 km/h aus 117

14.5 km/h aus SE

0.3 C

-1.5 C

-1.4 C

1.4 C

0 W/m

0.00 mm

02:30

1.5 C

1010.4 hpa

92 %

8.0 km/h aus 116

11.3 km/h aus SE

0.3 C

-1.1 C

-1.0 C

1.4 C

0 W/m

0.00 mm

02:35

1.6 C

1010.4 hpa

92 %

9.7 km/h aus 114

11.3 km/h aus SE

0.4 C

-1.4 C

-1.3 C

1.5 C

0 W/m

0.00 mm

02:40

1.6 C

1010.4 hpa

92 %

6.4 km/h aus 114

11.3 km/h aus SE

0.4 C

-0.4 C

-0.4 C

1.5 C

0 W/m

0.00 mm

02:45

1.6 C

1010.3 hpa

92 %

8.0 km/h aus 114

12.9 km/h aus SE

0.5 C

-0.9 C

-0.8 C

1.6 C

0 W/m

0.00 mm

02:50

1.7 C

1010.3 hpa

92 %

9.7 km/h aus 117

16.1 km/h aus SE

0.5 C

-1.3 C

-1.2 C

1.6 C

0 W/m

0.00 mm

02:55

1.7 C

1010.3 hpa

92 %

8.0 km/h aus 115

14.5 km/h aus SE

0.6 C

-0.8 C

-0.7 C

1.7 C

0 W/m

0.00 mm

03:00

1.7 C

1010.4 hpa

92 %

4.8 km/h aus 117

11.3 km/h aus ESE

0.6 C

0.4 C

0.4 C

1.7 C

0 W/m

0.00 mm

03:05

1.7 C

1010.4 hpa

92 %

4.8 km/h aus 116

8.0 km/h aus ENE

0.5 C

0.3 C

0.4 C

1.6 C

0 W/m

0.00 mm

03:10

1.7 C

1010.4 hpa

92 %

4.8 km/h aus 117

8.0 km/h aus E

0.5 C

0.3 C

0.4 C

1.6 C

0 W/m

0.00 mm

03:15

1.7 C

1010.1 hpa

92 %

4.8 km/h aus 114

6.4 km/h aus ENE

0.5 C

0.3 C

0.4 C

1.6 C

0 W/m

0.00 mm

03:20

1.7 C

1010.1 hpa

93 %

3.2 km/h aus 115

6.4 km/h aus E

0.7 C

1.3 C

1.3 C

1.7 C

0 W/m

0.00 mm

03:25

1.7 C

1010.1 hpa

92 %

6.4 km/h aus 115

11.3 km/h aus SE

0.6 C

-0.2 C

-0.2 C

1.7 C

0 W/m

0.00 mm

03:30

1.7 C

1009.9 hpa

92 %

6.4 km/h aus 117

14.5 km/h aus SE

0.6 C

-0.2 C

-0.2 C

1.7 C

0 W/m

0.00 mm

03:35

1.7 C

1009.9 hpa

93 %

4.8 km/h aus 116

11.3 km/h aus ESE

0.7 C

0.4 C

0.4 C

1.7 C

0 W/m

0.00 mm

03:40

1.7 C

1009.9 hpa

93 %

4.8 km/h aus 116

9.7 km/h aus E

0.7 C

0.4 C

0.4 C

1.7 C

0 W/m

0.00 mm

03:45

1.8 C

1009.9 hpa

93 %

6.4 km/h aus 117

11.3 km/h aus ESE

0.8 C

-0.1 C

-0.1 C

1.8 C

0 W/m

0.00 mm

03:50

1.8 C

1009.9 hpa

93 %

6.4 km/h aus 117

16.1 km/h aus ESE

0.8 C

-0.1 C

-0.1 C

1.8 C

0 W/m

0.00 mm

03:55

1.9 C

1009.9 hpa

93 %

8.0 km/h aus 115

16.1 km/h aus ESE

0.9 C

-0.5 C

-0.5 C

1.9 C

0 W/m

0.00 mm

04:00

1.9 C

1009.9 hpa

93 %

6.4 km/h aus 114

12.9 km/h aus E

0.9 C

0.0 C

0.0 C

1.9 C

0 W/m

0.00 mm

04:05

1.9 C

1009.9 hpa

93 %

6.4 km/h aus 116

11.3 km/h aus E

0.9 C

0.0 C

0.0 C

1.9 C

0 W/m

0.00 mm

04:10

1.9 C

1009.9 hpa

93 %

4.8 km/h aus 117

8.0 km/h aus ESE

0.9 C

0.7 C

0.7 C

1.9 C

0 W/m

0.00 mm

04:15

1.9 C

1009.9 hpa

93 %

3.2 km/h aus 115

6.4 km/h aus E

0.9 C

1.5 C

1.5 C

1.9 C

0 W/m

0.00 mm

04:20

1.9 C

1009.9 hpa

93 %

4.8 km/h aus 117

8.0 km/h aus E

0.9 C

0.7 C

0.7 C

1.9 C

0 W/m

0.00 mm

04:25

1.8 C

1009.9 hpa

93 %

4.8 km/h aus 117

6.4 km/h aus E

0.8 C

0.6 C

0.6 C

1.8 C

0 W/m

0.00 mm

04:30

1.8 C

1009.9 hpa

93 %

4.8 km/h aus 117

6.4 km/h aus E

0.8 C

0.6 C

0.6 C

1.8 C

0 W/m

0.00 mm

04:35

1.7 C

1009.9 hpa

93 %

6.4 km/h aus 116

11.3 km/h aus E

0.7 C

-0.2 C

-0.2 C

1.7 C

0 W/m

0.00 mm

04:40

1.7 C

1009.9 hpa

93 %

8.0 km/h aus 113

11.3 km/h aus ESE

0.7 C

-0.7 C

-0.7 C

1.7 C

0 W/m

0.00 mm

04:45

1.7 C

1009.8 hpa

93 %

8.0 km/h aus 116

16.1 km/h aus SE

0.7 C

-0.8 C

-0.8 C

1.7 C

0 W/m

0.00 mm

04:50

1.7 C

1009.8 hpa

93 %

12.9 km/h aus 117

19.3 km/h aus ESE

0.7 C

-1.9 C

-1.9 C

1.7 C

0 W/m

0.00 mm

04:55

1.7 C

1009.8 hpa

93 %

14.5 km/h aus 116

20.9 km/h aus ESE

0.7 C

-2.2 C

-2.2 C

1.7 C

0 W/m

0.00 mm

05:00

1.7 C

1009.9 hpa

93 %

14.5 km/h aus 116

17.7 km/h aus SE

0.7 C

-2.2 C

-2.2 C

1.7 C

0 W/m

0.00 mm

05:05

1.7 C

1009.9 hpa

93 %

11.3 km/h aus 116

17.7 km/h aus SE

0.7 C

-1.6 C

-1.6 C

1.7 C

0 W/m

0.00 mm

05:10

1.7 C

1009.9 hpa

93 %

11.3 km/h aus 117

19.3 km/h aus ESE

0.7 C

-1.6 C

-1.6 C

1.7 C

0 W/m

0.00 mm

05:15

1.7 C

1009.9 hpa

93 %

11.3 km/h aus 114

17.7 km/h aus ESE

0.7 C

-1.6 C

-1.6 C

1.7 C

0 W/m

0.00 mm

05:20

1.7 C

1009.9 hpa

93 %

11.3 km/h aus 115

17.7 km/h aus ESE

0.7 C

-1.6 C

-1.6 C

1.7 C

0 W/m

0.00 mm

05:25

1.6 C

1009.9 hpa

93 %

8.0 km/h aus 116

16.1 km/h aus SE

0.6 C

-0.8 C

-0.8 C

1.6 C

0 W/m

0.00 mm

05:30

1.6 C

1009.9 hpa

93 %

8.0 km/h aus 116

16.1 km/h aus ESE

0.5 C

-0.9 C

-0.9 C

1.5 C

0 W/m

0.00 mm

05:35

1.5 C

1009.9 hpa

93 %

8.0 km/h aus 116

11.3 km/h aus SE

0.5 C

-1.1 C

-1.0 C

1.4 C

0 W/m

0.00 mm

05:40

1.4 C

1009.9 hpa

93 %

8.0 km/h aus 118

14.5 km/h aus SE

0.4 C

-1.1 C

-1.1 C

1.4 C

0 W/m

0.00 mm

05:45

1.4 C

1009.9 hpa

93 %

3.2 km/h aus 117

8.0 km/h aus E

0.4 C

0.9 C

0.9 C

1.3 C

0 W/m

0.00 mm

05:50

1.3 C

1009.9 hpa

93 %

1.6 km/h aus 117

4.8 km/h aus E

0.3 C

1.3 C

1.3 C

1.3 C

0 W/m

0.00 mm

05:55

1.3 C

1009.9 hpa

93 %

3.2 km/h aus 112

6.4 km/h aus E

0.3 C

0.8 C

0.8 C

1.2 C

0 W/m

0.00 mm

06:00

1.2 C

1010.0 hpa

93 %

3.2 km/h aus 114

6.4 km/h aus E

0.2 C

0.7 C

0.8 C

1.2 C

0 W/m

0.00 mm

06:05

1.2 C

1010.0 hpa

93 %

3.2 km/h aus 116

6.4 km/h aus E

0.2 C

0.7 C

0.7 C

1.1 C

0 W/m

0.00 mm

06:10

1.1 C

1010.0 hpa

93 %

4.8 km/h aus 117

8.0 km/h aus E

0.1 C

-0.3 C

-0.3 C

1.0 C

0 W/m

0.00 mm

06:15

1.0 C

1010.2 hpa

93 %

6.4 km/h aus 116

11.3 km/h aus ESE

0.0 C

-1.1 C

-1.0 C

0.9 C

0 W/m

0.00 mm

06:20

0.9 C

1010.2 hpa

93 %

9.7 km/h aus 117

16.1 km/h aus SE

-0.1 C

-2.1 C

-2.1 C

0.9 C

0 W/m

0.00 mm

06:25

1.1 C

1010.2 hpa

93 %

9.7 km/h aus 116

16.1 km/h aus ESE

0.1 C

-2.0 C

-1.9 C

1.0 C

0 W/m

0.00 mm

06:30

1.2 C

1010.2 hpa

93 %

8.0 km/h aus 117

11.3 km/h aus SE

0.2 C

-1.4 C

-1.4 C

1.1 C

0 W/m

0.00 mm

06:35

1.2 C

1010.2 hpa

93 %

8.0 km/h aus 115

11.3 km/h aus E

0.2 C

-1.3 C

-1.3 C

1.2 C

0 W/m

0.00 mm

06:40

1.3 C

1010.2 hpa

93 %

8.0 km/h aus 113

11.3 km/h aus ESE

0.3 C

-1.3 C

-1.2 C

1.2 C

0 W/m

0.00 mm

06:45

1.3 C

1010.5 hpa

94 %

6.4 km/h aus 116

11.3 km/h aus ESE

0.4 C

-0.8 C

-0.7 C

1.2 C

0 W/m

0.00 mm

06:50

1.3 C

1010.5 hpa

94 %

8.0 km/h aus 117

11.3 km/h aus ESE

0.4 C

-1.3 C

-1.2 C

1.2 C

0 W/m

0.00 mm

06:55

1.3 C

1010.5 hpa

94 %

8.0 km/h aus 117

16.1 km/h aus ESE

0.4 C

-1.3 C

-1.2 C

1.2 C

0 W/m

0.00 mm

07:00

1.3 C

1010.9 hpa

94 %

9.7 km/h aus 117

17.7 km/h aus ESE

0.5 C

-1.7 C

-1.6 C

1.3 C

0 W/m

0.00 mm

07:05

1.4 C

1010.9 hpa

94 %

6.4 km/h aus 116

12.9 km/h aus ESE

0.5 C

-0.6 C

-0.6 C

1.3 C

0 W/m

0.00 mm

07:10

1.4 C

1010.9 hpa

94 %

4.8 km/h aus 117

8.0 km/h aus E

0.5 C

0.0 C

0.1 C

1.3 C

0 W/m

0.00 mm

07:15

1.3 C

1010.9 hpa

94 %

3.2 km/h aus 113

6.4 km/h aus E

0.5 C

0.8 C

0.9 C

1.3 C

0 W/m

0.00 mm

07:20

1.3 C

1010.9 hpa

94 %

1.6 km/h aus 115

4.8 km/h aus E

0.5 C

1.3 C

1.3 C

1.3 C

0 W/m

0.00 mm

07:25

1.3 C

1010.9 hpa

94 %

1.6 km/h aus 115

4.8 km/h aus E

0.4 C

1.2 C

1.3 C

1.2 C

0 W/m

0.00 mm

07:30

1.2 C

1010.7 hpa

94 %

0.0 km/h aus 116

3.2 km/h aus E

0.4 C

1.2 C

1.2 C

1.2 C

0 W/m

0.00 mm

07:35

1.2 C

1010.7 hpa

93 %

0.0 km/h aus 117

4.8 km/h aus E

0.2 C

1.1 C

1.2 C

1.1 C

0 W/m

0.00 mm

07:40

1.1 C

1010.7 hpa

93 %

3.2 km/h aus 117

4.8 km/h aus E

0.1 C

0.6 C

0.6 C

1.0 C

0 W/m

0.00 mm

07:45

0.9 C

1010.5 hpa

94 %

3.2 km/h aus 117

4.8 km/h aus E

0.1 C

0.4 C

0.4 C

0.9 C

5 W/m

0.00 mm

07:50

0.8 C

1010.5 hpa

94 %

3.2 km/h aus 118

4.8 km/h aus E

0.0 C

0.3 C

0.3 C

0.8 C

7 W/m

0.00 mm

07:55

0.8 C

1010.5 hpa

93 %

0.0 km/h aus 114

1.6 km/h aus E

-0.2 C

0.8 C

0.8 C

0.8 C

9 W/m

0.00 mm

08:00

0.8 C

1010.4 hpa

93 %

1.6 km/h aus 114

3.2 km/h aus E

-0.2 C

0.7 C

0.8 C

0.7 C

11 W/m

0.00 mm

08:05

0.7 C

1010.4 hpa

93 %

3.2 km/h aus 113

6.4 km/h aus ENE

-0.3 C

0.2 C

0.2 C

0.7 C

14 W/m

0.00 mm

08:10

0.7 C

1010.4 hpa

94 %

3.2 km/h aus 117

4.8 km/h aus ENE

-0.1 C

0.2 C

0.2 C

0.7 C

20 W/m

0.00 mm

08:15

0.7 C

1010.0 hpa

94 %

3.2 km/h aus 117

4.8 km/h aus NE

-0.1 C

0.2 C

0.2 C

0.7 C

26 W/m

0.25 mm

08:20

0.7 C

1010.0 hpa

94 %

1.6 km/h aus 117

4.8 km/h aus ENE

-0.1 C

0.7 C

0.7 C

0.7 C

30 W/m

0.00 mm

08:25

0.7 C

1010.0 hpa

94 %

1.6 km/h aus 117

3.2 km/h aus ENE

-0.1 C

0.7 C

0.7 C

0.7 C

33 W/m

0.00 mm

08:30

0.8 C

1010.4 hpa

94 %

1.6 km/h aus 117

3.2 km/h aus ENE

-0.1 C

0.7 C

0.8 C

0.7 C

37 W/m

0.00 mm

08:35

0.8 C

1010.4 hpa

94 %

1.6 km/h aus 115

4.8 km/h aus ENE

-0.1 C

0.7 C

0.8 C

0.7 C

42 W/m

0.00 mm

08:40

0.8 C

1010.4 hpa

94 %

3.2 km/h aus 114

6.4 km/h aus ENE

0.0 C

0.3 C

0.3 C

0.8 C

45 W/m

0.00 mm

08:45

1.0 C

1010.8 hpa

94 %

3.2 km/h aus 114

8.0 km/h aus E

0.1 C

0.4 C

0.5 C

0.9 C

46 W/m

0.00 mm

08:50

1.1 C

1010.8 hpa

94 %

3.2 km/h aus 117

4.8 km/h aus E

0.2 C

0.6 C

0.6 C

1.0 C

51 W/m

0.00 mm

08:55

1.1 C

1010.8 hpa

94 %

0.0 km/h aus 118

3.2 km/h aus E

0.2 C

1.0 C

1.1 C

1.0 C

61 W/m

0.00 mm

09:00

1.1 C

1010.8 hpa

94 %

0.0 km/h aus 117

1.6 km/h aus E

0.3 C

1.1 C

1.1 C

1.1 C

67 W/m

0.00 mm

09:05

1.2 C

1010.8 hpa

94 %

1.6 km/h aus 117

3.2 km/h aus E

0.3 C

1.1 C

1.2 C

1.1 C

71 W/m

0.00 mm

09:10

1.4 C

1010.8 hpa

94 %

0.0 km/h aus 116

1.6 km/h aus E

0.6 C

1.4 C

1.4 C

1.4 C

83 W/m

0.00 mm

09:15

1.4 C

1010.6 hpa

94 %

0.0 km/h aus 115

3.2 km/h aus E

0.6 C

1.4 C

1.4 C

1.4 C

82 W/m

0.00 mm

09:20

1.5 C

1010.6 hpa

94 %

1.6 km/h aus 115

3.2 km/h aus E

0.6 C

1.5 C

1.5 C

1.5 C

80 W/m

0.00 mm

09:25

1.6 C

1010.6 hpa

95 %

0.0 km/h aus 115

1.6 km/h aus E

0.8 C

1.6 C

1.6 C

1.6 C

81 W/m

0.00 mm

09:30

1.6 C

1010.8 hpa

95 %

1.6 km/h aus 116

3.2 km/h aus E

0.8 C

1.6 C

1.6 C

1.6 C

95 W/m

0.00 mm

09:35

1.6 C

1010.8 hpa

95 %

1.6 km/h aus 117

3.2 km/h aus E

0.8 C

1.6 C

1.6 C

1.6 C

104 W/m

0.00 mm

09:40

1.6 C

1010.8 hpa

95 %

1.6 km/h aus 117

3.2 km/h aus E

0.9 C

1.6 C

1.6 C

1.6 C

105 W/m

0.00 mm

09:45

1.7 C

1010.8 hpa

95 %

1.6 km/h aus 117

3.2 km/h aus E

1.0 C

1.7 C

1.7 C

1.7 C

106 W/m

0.00 mm

09:50

1.7 C

1010.8 hpa

95 %

1.6 km/h aus 117

3.2 km/h aus E

1.0 C

1.7 C

1.7 C

1.7 C

110 W/m

0.00 mm

09:55

1.7 C

1010.8 hpa

95 %

0.0 km/h aus 114

1.6 km/h aus E

1.0 C

1.7 C

1.7 C

1.7 C

117 W/m

0.00 mm

10:00

1.8 C

1010.5 hpa

95 %

0.0 km/h aus 114

1.6 km/h aus E

1.1 C

1.8 C

1.8 C

1.8 C

131 W/m

0.00 mm

10:05

1.9 C

1010.5 hpa

95 %

0.0 km/h aus 118

1.6 km/h aus E

1.2 C

1.9 C

1.9 C

1.9 C

141 W/m

0.00 mm

10:10

2.0 C

1010.5 hpa

95 %

0.0 km/h aus 117

1.6 km/h aus E

1.3 C

2.0 C

2.0 C

2.0 C

144 W/m

0.00 mm

10:15

2.2 C

1010.5 hpa

95 %

1.6 km/h aus 116

3.2 km/h aus E

1.5 C

2.2 C

2.2 C

2.2 C

145 W/m

0.00 mm

10:20

2.4 C

1010.5 hpa

95 %

1.6 km/h aus 117

4.8 km/h aus E

1.7 C

2.4 C

2.4 C

2.4 C

138 W/m

0.00 mm

10:25

2.4 C

1010.5 hpa

95 %

1.6 km/h aus 115

3.2 km/h aus ENE

1.7 C

2.4 C

2.4 C

2.4 C

137 W/m

0.00 mm

10:30

2.3 C

1010.4 hpa

94 %

3.2 km/h aus 114

4.8 km/h aus ENE

1.5 C

2.0 C

2.0 C

2.3 C

139 W/m

0.00 mm

10:35

2.4 C

1010.4 hpa

94 %

1.6 km/h aus 114

3.2 km/h aus ENE

1.6 C

2.4 C

2.4 C

2.4 C

146 W/m

0.00 mm

10:40

2.7 C

1010.4 hpa

94 %

1.6 km/h aus 116

4.8 km/h aus ENE

1.9 C

2.7 C

2.7 C

2.7 C

158 W/m

0.00 mm

10:45

2.9 C

1009.9 hpa

94 %

3.2 km/h aus 117

6.4 km/h aus NE

2.0 C

2.6 C

2.6 C

2.9 C

158 W/m

0.00 mm

10:50

3.1 C

1009.9 hpa

94 %

3.2 km/h aus 117

4.8 km/h aus NNE

2.2 C

2.8 C

2.8 C

3.1 C

167 W/m

0.00 mm

10:55

3.2 C

1009.9 hpa

94 %

1.6 km/h aus 117

4.8 km/h aus NNE

2.3 C

3.2 C

3.2 C

3.2 C

152 W/m

0.00 mm

11:00

3.1 C

1009.9 hpa

94 %

1.6 km/h aus 116

3.2 km/h aus N

2.2 C

3.1 C

3.1 C

3.1 C

133 W/m

0.00 mm

11:05

2.8 C

1009.9 hpa

93 %

0.0 km/h aus 114

1.6 km/h aus N

1.8 C

2.8 C

2.8 C

2.8 C

127 W/m

0.00 mm

11:10

3.0 C

1009.9 hpa

94 %

0.0 km/h aus 115

1.6 km/h aus N

2.1 C

3.0 C

3.0 C

3.0 C

127 W/m

0.00 mm

11:15

3.1 C

1009.8 hpa

94 %

0.0 km/h aus 116

1.6 km/h aus N

2.2 C

3.1 C

3.1 C

3.1 C

127 W/m

0.00 mm

11:20

3.2 C

1009.8 hpa

93 %

0.0 km/h aus 117

3.2 km/h aus NW

2.1 C

3.2 C

3.2 C

3.2 C

116 W/m

0.00 mm

11:25

3.2 C

1009.8 hpa

94 %

0.0 km/h aus 117

0.0 km/h aus ---

2.3 C

3.2 C

3.2 C

3.2 C

112 W/m

0.00 mm

11:30

3.3 C

1009.9 hpa

94 %

0.0 km/h aus 116

1.6 km/h aus NW

2.5 C

3.3 C

3.3 C

3.3 C

114 W/m

0.00 mm

11:35

3.5 C

1009.9 hpa

93 %

0.0 km/h aus 114

1.6 km/h aus NW

2.5 C

3.5 C

3.5 C

3.5 C

114 W/m

0.00 mm

11:40

3.6 C

1009.9 hpa

93 %

0.0 km/h aus 115

1.6 km/h aus NW

2.6 C

3.6 C

3.6 C

3.6 C

97 W/m

0.00 mm

11:45

3.7 C

1009.9 hpa

93 %

0.0 km/h aus 116

1.6 km/h aus NW

2.7 C

3.7 C

3.7 C

3.7 C

87 W/m

0.00 mm

11:50

3.8 C

1009.9 hpa

93 %

0.0 km/h aus 117

0.0 km/h aus ---

2.7 C

3.8 C

3.8 C

3.8 C

89 W/m

0.00 mm

11:55

3.9 C

1009.9 hpa

93 %

0.0 km/h aus 117

3.2 km/h aus NW

2.9 C

3.9 C

3.9 C

3.9 C

89 W/m

0.00 mm

12:00

4.0 C

1009.4 hpa

93 %

1.6 km/h aus 116

4.8 km/h aus NW

3.0 C

4.0 C

4.0 C

4.0 C

101 W/m

0.00 mm

12:05

4.1 C

1009.4 hpa

93 %

3.2 km/h aus 116

6.4 km/h aus NW

3.1 C

3.9 C

3.9 C

4.1 C

133 W/m

0.00 mm

12:10

4.3 C

1009.4 hpa

93 %

1.6 km/h aus 115

6.4 km/h aus NW

3.2 C

4.3 C

4.3 C

4.3 C

164 W/m

0.00 mm

12:15

4.5 C

1009.0 hpa

93 %

3.2 km/h aus 115

8.0 km/h aus N

3.5 C

4.4 C

4.4 C

4.5 C

160 W/m

0.00 mm

12:20

4.6 C

1009.0 hpa

92 %

3.2 km/h aus 117

8.0 km/h aus NNW

3.4 C

4.4 C

4.4 C

4.6 C

140 W/m

0.00 mm

12:25

4.7 C

1009.0 hpa

92 %

3.2 km/h aus 117

8.0 km/h aus N

3.5 C

4.6 C

4.6 C

4.7 C

134 W/m

0.00 mm

12:30

4.8 C

1009.3 hpa

92 %

3.2 km/h aus 117

6.4 km/h aus NNE

3.6 C

4.7 C

4.7 C

4.8 C

132 W/m

0.00 mm

12:35

4.8 C

1009.3 hpa

92 %

4.8 km/h aus 117

8.0 km/h aus NNW

3.6 C

4.0 C

4.0 C

4.8 C

129 W/m

0.00 mm

12:40

4.9 C

1009.3 hpa

91 %

4.8 km/h aus 114

9.7 km/h aus NNW

3.5 C

4.0 C

4.1 C

4.8 C

125 W/m

0.00 mm

12:45

5.0 C

1008.8 hpa

91 %

4.8 km/h aus 114

9.7 km/h aus N

3.7 C

4.1 C

4.2 C

4.9 C

111 W/m

0.00 mm

12:50

5.1 C

1008.8 hpa

90 %

4.8 km/h aus 116

9.7 km/h aus NNW

3.6 C

4.2 C

4.3 C

5.1 C

99 W/m

0.00 mm

12:55

5.1 C

1008.8 hpa

90 %

4.8 km/h aus 116

9.7 km/h aus NNW

3.6 C

4.2 C

4.2 C

5.0 C

80 W/m

0.00 mm

13:00

5.1 C

1008.8 hpa

90 %

8.0 km/h aus 116

12.9 km/h aus N

3.6 C

3.1 C

3.2 C

5.0 C

71 W/m

0.00 mm

13:05

5.1 C

1008.8 hpa

90 %

6.4 km/h aus 116

11.3 km/h aus NNW

3.6 C

3.6 C

3.7 C

5.0 C

72 W/m

0.00 mm

13:10

5.0 C

1008.8 hpa

90 %

6.4 km/h aus 116

11.3 km/h aus NNW

3.5 C

3.6 C

3.6 C

4.9 C

71 W/m

0.00 mm

13:15

5.0 C

1008.3 hpa

90 %

4.8 km/h aus 114

9.7 km/h aus N

3.5 C

4.1 C

4.2 C

4.9 C

77 W/m

0.00 mm

13:20

5.1 C

1008.3 hpa

90 %

6.4 km/h aus 117

9.7 km/h aus N

3.6 C

3.6 C

3.7 C

5.0 C

87 W/m

0.00 mm

13:25

5.1 C

1008.3 hpa

89 %

4.8 km/h aus 117

8.0 km/h aus N

3.4 C

4.2 C

4.2 C

5.0 C

82 W/m

0.00 mm

13:30

5.1 C

1008.2 hpa

89 %

4.8 km/h aus 117

6.4 km/h aus NNW

3.4 C

4.2 C

4.3 C

5.1 C

74 W/m

0.00 mm

13:35

5.2 C

1008.2 hpa

89 %

3.2 km/h aus 117

8.0 km/h aus N

3.5 C

5.1 C

5.1 C

5.1 C

63 W/m

0.00 mm

13:40

5.2 C

1008.2 hpa

89 %

4.8 km/h aus 117

11.3 km/h aus N

3.5 C

4.3 C

4.3 C

5.1 C

55 W/m

0.00 mm

13:45

5.2 C

1008.3 hpa

89 %

3.2 km/h aus 113

6.4 km/h aus N

3.5 C

5.1 C

5.1 C

5.1 C

47 W/m

0.00 mm

13:50

5.2 C

1008.3 hpa

89 %

3.2 km/h aus 114

8.0 km/h aus N

3.5 C

5.1 C

5.1 C

5.1 C

32 W/m

0.00 mm

13:55

5.2 C

1008.3 hpa

89 %

4.8 km/h aus 117

8.0 km/h aus N

3.5 C

4.3 C

4.3 C

5.1 C

26 W/m

0.00 mm

14:00

5.1 C

1008.1 hpa

89 %

6.4 km/h aus 116

9.7 km/h aus NNW

3.4 C

3.7 C

3.7 C

5.1 C

24 W/m

0.00 mm

14:05

5.1 C

1008.1 hpa

89 %

6.4 km/h aus 116

8.0 km/h aus NW

3.4 C

3.7 C

3.7 C

5.1 C

30 W/m

0.00 mm

14:10

5.1 C

1008.1 hpa

89 %

6.4 km/h aus 117

9.7 km/h aus NNW

3.4 C

3.6 C

3.7 C

5.0 C

31 W/m

0.00 mm

14:15

5.1 C

1007.8 hpa

89 %

6.4 km/h aus 115

9.7 km/h aus NNW

3.4 C

3.6 C

3.7 C

5.0 C

39 W/m

0.00 mm

14:20

5.0 C

1007.8 hpa

89 %

6.4 km/h aus 113

14.5 km/h aus N

3.3 C

3.6 C

3.6 C

4.9 C

47 W/m

0.00 mm

14:25

4.9 C

1007.8 hpa

88 %

6.4 km/h aus 117

14.5 km/h aus N

3.1 C

3.5 C

3.6 C

4.9 C

43 W/m

0.00 mm

14:30

4.9 C

1008.0 hpa

88 %

4.8 km/h aus 117

9.7 km/h aus N

3.1 C

4.1 C

4.1 C

4.9 C

36 W/m

0.00 mm

14:35

4.9 C

1008.0 hpa

88 %

6.4 km/h aus 117

11.3 km/h aus N

3.1 C

3.5 C

3.6 C

4.9 C

28 W/m

0.00 mm

14:40

4.9 C

1008.0 hpa

88 %

6.4 km/h aus 116

9.7 km/h aus NNW

3.1 C

3.4 C

3.5 C

4.8 C

30 W/m

0.00 mm

14:45

4.8 C

1007.8 hpa

88 %

8.0 km/h aus 116

11.3 km/h aus NNW

3.0 C

2.9 C

2.9 C

4.8 C

34 W/m

0.00 mm

14:50

4.8 C

1007.8 hpa

88 %

6.4 km/h aus 113

11.3 km/h aus NNW

3.0 C

3.3 C

3.4 C

4.8 C

35 W/m

0.00 mm

14:55

4.8 C

1007.8 hpa

88 %

8.0 km/h aus 116

11.3 km/h aus NNW

3.0 C

2.8 C

2.9 C

4.7 C

30 W/m

0.00 mm

15:00

4.8 C

1007.3 hpa

89 %

6.4 km/h aus 116

11.3 km/h aus NNW

3.1 C

3.3 C

3.3 C

4.7 C

26 W/m

0.00 mm

15:05

4.7 C

1007.3 hpa

89 %

6.4 km/h aus 116

14.5 km/h aus N

3.1 C

3.2 C

3.3 C

4.7 C

22 W/m

0.00 mm

15:10

4.7 C

1007.3 hpa

89 %

4.8 km/h aus 117

12.9 km/h aus N

3.1 C

3.8 C

3.9 C

4.7 C

19 W/m

0.00 mm

15:15

4.7 C

1007.6 hpa

89 %

6.4 km/h aus 117

11.3 km/h aus N

3.0 C

3.2 C

3.2 C

4.6 C

16 W/m

0.00 mm

15:20

4.7 C

1007.6 hpa

89 %

4.8 km/h aus 115

11.3 km/h aus N

3.0 C

3.7 C

3.8 C

4.6 C

13 W/m

0.00 mm

15:25

4.6 C

1007.6 hpa

89 %

8.0 km/h aus 113

17.7 km/h aus N

3.0 C

2.6 C

2.7 C

4.6 C

11 W/m

0.00 mm

15:30

4.6 C

1007.1 hpa

89 %

6.4 km/h aus 118

17.7 km/h aus N

3.0 C

3.1 C

3.2 C

4.6 C

12 W/m

0.00 mm

15:35

4.6 C

1007.1 hpa

89 %

6.4 km/h aus 117

12.9 km/h aus N

2.9 C

3.0 C

3.1 C

4.5 C

11 W/m

0.00 mm

15:40

4.6 C

1007.1 hpa

89 %

4.8 km/h aus 117

11.3 km/h aus NNE

2.9 C

3.6 C

3.7 C

4.5 C

8 W/m

0.00 mm

15:45

4.6 C

1007.2 hpa

89 %

4.8 km/h aus 116

11.3 km/h aus N

2.9 C

3.6 C

3.7 C

4.5 C

5 W/m

0.00 mm

15:50

4.5 C

1007.2 hpa

89 %

6.4 km/h aus 116

11.3 km/h aus NNE

2.8 C

2.9 C

3.0 C

4.4 C

5 W/m

0.00 mm

15:55

4.5 C

1007.2 hpa

89 %

3.2 km/h aus 114

9.7 km/h aus N

2.8 C

4.3 C

4.4 C

4.4 C

3 W/m

0.00 mm

16:00

4.5 C

1007.1 hpa

89 %

3.2 km/h aus 114

6.4 km/h aus N

2.8 C

4.3 C

4.4 C

4.4 C

0 W/m

0.00 mm

16:05

4.5 C

1007.1 hpa

89 %

6.4 km/h aus 115

11.3 km/h aus NNW

2.8 C

2.9 C

3.0 C

4.4 C

0 W/m

0.00 mm

16:10

4.5 C

1007.1 hpa

89 %

3.2 km/h aus 117

8.0 km/h aus N

2.8 C

4.3 C

4.4 C

4.4 C

0 W/m

0.00 mm

16:15

4.5 C

1007.0 hpa

90 %

4.8 km/h aus 117

9.7 km/h aus N

3.0 C

3.6 C

3.6 C

4.4 C

0 W/m

0.00 mm

16:20

4.4 C

1007.0 hpa

89 %

4.8 km/h aus 117

9.7 km/h aus NNW

2.8 C

3.5 C

3.6 C

4.4 C

0 W/m

0.00 mm

16:25

4.4 C

1007.0 hpa

89 %

4.8 km/h aus 115

8.0 km/h aus N

2.8 C

3.5 C

3.6 C

4.4 C

0 W/m

0.00 mm

16:30

4.4 C

1006.4 hpa

90 %

6.4 km/h aus 115

14.5 km/h aus N

2.9 C

2.9 C

2.9 C

4.4 C

0 W/m

0.00 mm

16:35

4.4 C

1006.4 hpa

90 %

3.2 km/h aus 117

9.7 km/h aus N

2.9 C

4.3 C

4.3 C

4.4 C

0 W/m

0.00 mm

16:40

4.4 C

1006.4 hpa

90 %

3.2 km/h aus 88

6.4 km/h aus WNW

2.9 C

4.3 C

4.3 C

4.4 C

0 W/m

0.00 mm

16:45

4.4 C

1006.8 hpa

90 %

3.2 km/h aus 117

6.4 km/h aus NW

2.9 C

4.3 C

4.3 C

4.4 C

0 W/m

0.00 mm

16:50

4.4 C

1006.8 hpa

90 %

3.2 km/h aus 117

6.4 km/h aus N

2.9 C

4.3 C

4.3 C

4.4 C

0 W/m

0.00 mm

16:55

4.4 C

1006.8 hpa

90 %

1.6 km/h aus 116

6.4 km/h aus NW

2.9 C

4.4 C

4.4 C

4.4 C

0 W/m

0.00 mm

17:00

4.4 C

1006.9 hpa

90 %

3.2 km/h aus 114

4.8 km/h aus NNW

2.9 C

4.3 C

4.3 C

4.4 C

0 W/m

0.00 mm

17:05

4.4 C

1006.9 hpa

91 %

3.2 km/h aus 113

4.8 km/h aus NNW

3.1 C

4.3 C

4.3 C

4.4 C

0 W/m

0.00 mm

17:10

4.4 C

1006.9 hpa

90 %

3.2 km/h aus 117

8.0 km/h aus N

2.9 C

4.3 C

4.3 C

4.4 C

0 W/m

0.00 mm

17:15

4.4 C

1006.8 hpa

91 %

3.2 km/h aus 117

8.0 km/h aus N

3.1 C

4.3 C

4.3 C

4.4 C

0 W/m

0.00 mm

17:20

4.4 C

1006.8 hpa

91 %

3.2 km/h aus 117

6.4 km/h aus NNW

3.1 C

4.3 C

4.3 C

4.4 C

0 W/m

0.00 mm

17:25

4.4 C

1006.8 hpa

91 %

4.8 km/h aus 117

6.4 km/h aus NNW

3.1 C

3.5 C

3.6 C

4.4 C

0 W/m

0.25 mm

17:30

4.4 C

1006.7 hpa

91 %

4.8 km/h aus 116

11.3 km/h aus N

3.1 C

3.5 C

3.6 C

4.4 C

0 W/m

0.25 mm

17:35

4.4 C

1006.7 hpa

91 %

6.4 km/h aus 114

9.7 km/h aus NNW

3.0 C

2.8 C

2.9 C

4.3 C

0 W/m

0.25 mm

17:40

4.4 C

1006.7 hpa

91 %

6.4 km/h aus 116

9.7 km/h aus WNW

3.0 C

2.8 C

2.9 C

4.3 C

0 W/m

0.51 mm

17:45

4.3 C

1006.3 hpa

91 %

8.0 km/h aus 115

14.5 km/h aus N

3.0 C

2.3 C

2.3 C

4.3 C

0 W/m

0.25 mm

17:50

4.3 C

1006.3 hpa

91 %

6.4 km/h aus 117

12.9 km/h aus NNW

3.0 C

2.8 C

2.8 C

4.3 C

0 W/m

0.00 mm

17:55

4.3 C

1006.3 hpa

91 %

8.0 km/h aus 117

14.5 km/h aus NNW

2.9 C

2.2 C

2.3 C

4.2 C

0 W/m

0.25 mm

18:00

4.3 C

1006.2 hpa

91 %

8.0 km/h aus 117

12.9 km/h aus N

2.9 C

2.2 C

2.3 C

4.2 C

0 W/m

0.25 mm

18:05

4.2 C

1006.2 hpa

91 %

9.7 km/h aus 115

20.9 km/h aus NNW

2.9 C

1.8 C

1.8 C

4.2 C

0 W/m

0.00 mm

18:10

4.2 C

1006.2 hpa

92 %

9.7 km/h aus 114

19.3 km/h aus NNE

3.0 C

1.8 C

1.8 C

4.2 C

0 W/m

0.25 mm

18:15

4.2 C

1006.2 hpa

92 %

8.0 km/h aus 116

16.1 km/h aus NNW

3.0 C

2.2 C

2.2 C

4.2 C

0 W/m

0.25 mm

18:20

4.2 C

1006.2 hpa

92 %

9.7 km/h aus 117

20.9 km/h aus N

3.0 C

1.8 C

1.8 C

4.2 C

0 W/m

0.25 mm

18:25

4.1 C

1006.2 hpa

92 %

8.0 km/h aus 115

14.5 km/h aus NNW

2.9 C

2.1 C

2.1 C

4.1 C

0 W/m

0.25 mm

18:30

4.1 C

1005.8 hpa

92 %

8.0 km/h aus 116

16.1 km/h aus NNW

2.9 C

2.1 C

2.1 C

4.1 C

0 W/m

0.25 mm

18:35

4.1 C

1005.8 hpa

92 %

6.4 km/h aus 117

16.1 km/h aus N

2.9 C

2.5 C

2.5 C

4.1 C

0 W/m

0.00 mm

18:40

4.1 C

1005.8 hpa

92 %

8.0 km/h aus 114

19.3 km/h aus NNW

2.9 C

2.1 C

2.1 C

4.1 C

0 W/m

0.25 mm

18:45

4.1 C

1005.6 hpa

92 %

11.3 km/h aus 115

19.3 km/h aus NNW

2.9 C

1.3 C

1.3 C

4.1 C

0 W/m

0.25 mm

18:50

4.1 C

1005.6 hpa

93 %

11.3 km/h aus 117

22.5 km/h aus N

3.0 C

1.3 C

1.3 C

4.1 C

0 W/m

0.00 mm

18:55

4.1 C

1005.6 hpa

93 %

11.3 km/h aus 116

19.3 km/h aus N

3.0 C

1.3 C

1.3 C

4.1 C

0 W/m

0.25 mm

19:00

4.1 C

1005.2 hpa

93 %

11.3 km/h aus 117

20.9 km/h aus NNW

3.0 C

1.3 C

1.3 C

4.1 C

0 W/m

0.00 mm

19:05

4.1 C

1005.2 hpa

93 %

9.7 km/h aus 117

19.3 km/h aus NNE

3.0 C

1.6 C

1.6 C

4.1 C

0 W/m

0.25 mm

19:10

4.1 C

1005.2 hpa

93 %

8.0 km/h aus 116

20.9 km/h aus N

3.0 C

2.1 C

2.1 C

4.1 C

0 W/m

0.00 mm

19:15

4.1 C

1005.2 hpa

93 %

11.3 km/h aus 115

17.7 km/h aus NNW

3.0 C

1.3 C

1.3 C

4.1 C

0 W/m

0.00 mm

19:20

4.1 C

1005.2 hpa

93 %

9.7 km/h aus 114

22.5 km/h aus N

3.0 C

1.6 C

1.6 C

4.1 C

0 W/m

0.25 mm

19:25

4.1 C

1005.2 hpa

93 %

12.9 km/h aus 117

22.5 km/h aus NNE

3.0 C

0.9 C

0.9 C

4.1 C

0 W/m

0.00 mm

19:30

4.1 C

1005.0 hpa

93 %

9.7 km/h aus 117

16.1 km/h aus NNW

3.0 C

1.6 C

1.6 C

4.1 C

0 W/m

0.25 mm

19:35

4.1 C

1005.0 hpa

93 %

9.7 km/h aus 117

19.3 km/h aus NNW

3.1 C

1.7 C

1.7 C

4.1 C

0 W/m

0.00 mm

19:40

4.1 C

1005.0 hpa

93 %

8.0 km/h aus 116

17.7 km/h aus N

3.1 C

2.1 C

2.1 C

4.1 C

0 W/m

0.00 mm

19:45

4.2 C

1004.7 hpa

93 %

8.0 km/h aus 115

16.1 km/h aus NNW

3.1 C

2.2 C

2.2 C

4.2 C

0 W/m

0.00 mm

19:50

4.2 C

1004.7 hpa

94 %

8.0 km/h aus 115

16.1 km/h aus NNW

3.3 C

2.2 C

2.2 C

4.2 C

0 W/m

0.25 mm

19:55

4.2 C

1004.7 hpa

94 %

9.7 km/h aus 115

17.7 km/h aus NNE

3.3 C

1.8 C

1.8 C

4.2 C

0 W/m

0.00 mm

20:00

4.2 C

1004.7 hpa

94 %

8.0 km/h aus 116

16.1 km/h aus N

3.3 C

2.2 C

2.2 C

4.2 C

0 W/m

0.00 mm

20:05

4.3 C

1004.7 hpa

94 %

9.7 km/h aus 117

24.1 km/h aus N

3.4 C

1.9 C

1.9 C

4.3 C

0 W/m

0.00 mm

20:10

4.3 C

1004.7 hpa

94 %

9.7 km/h aus 117

16.1 km/h aus NNW

3.4 C

1.9 C

1.9 C

4.3 C

0 W/m

0.00 mm

20:15

4.3 C

1004.8 hpa

94 %

6.4 km/h aus 117

12.9 km/h aus N

3.4 C

2.8 C

2.8 C

4.3 C

0 W/m

0.00 mm

20:20

4.3 C

1004.8 hpa

94 %

6.4 km/h aus 113

14.5 km/h aus N

3.4 C

2.8 C

2.8 C

4.3 C

0 W/m

0.00 mm

20:25

4.3 C

1004.8 hpa

94 %

4.8 km/h aus 114

9.7 km/h aus N

3.4 C

3.3 C

3.3 C

4.3 C

0 W/m

0.00 mm

20:30

4.3 C

1005.0 hpa

94 %

3.2 km/h aus 117

8.0 km/h aus NNW

3.4 C

4.1 C

4.1 C

4.3 C

0 W/m

0.00 mm

20:35

4.3 C

1005.0 hpa

94 %

4.8 km/h aus 116

8.0 km/h aus N

3.4 C

3.3 C

3.3 C

4.3 C

0 W/m

0.00 mm

20:40

4.3 C

1005.0 hpa

94 %

6.4 km/h aus 117

14.5 km/h aus N

3.5 C

2.8 C

2.8 C

4.3 C

0 W/m

0.00 mm

20:45

4.3 C

1004.7 hpa

94 %

9.7 km/h aus 117

17.7 km/h aus NW

3.5 C

1.9 C

1.9 C

4.3 C

0 W/m

0.00 mm

20:50

4.3 C

1004.7 hpa

94 %

6.4 km/h aus 116

14.5 km/h aus N

3.5 C

2.8 C

2.8 C

4.3 C

0 W/m

0.00 mm

20:55

4.3 C

1004.7 hpa

94 %

6.4 km/h aus 116

16.1 km/h aus N

3.5 C

2.8 C

2.8 C

4.3 C

0 W/m

0.25 mm

21:00

4.3 C

1004.2 hpa

94 %

6.4 km/h aus 115

14.5 km/h aus NNW

3.5 C

2.8 C

2.8 C

4.3 C

0 W/m

0.00 mm

21:05

4.3 C

1004.2 hpa

94 %

8.0 km/h aus 117

16.1 km/h aus NNW

3.5 C

2.3 C

2.3 C

4.3 C

0 W/m

0.00 mm

21:10

4.3 C

1004.2 hpa

94 %

4.8 km/h aus 116

9.7 km/h aus NNW

3.5 C

3.4 C

3.4 C

4.3 C

0 W/m

0.00 mm

21:15

4.3 C

1004.1 hpa

94 %

6.4 km/h aus 117

9.7 km/h aus NNW

3.5 C

2.8 C

2.8 C

4.3 C

0 W/m

0.00 mm

21:20

4.3 C

1004.1 hpa

94 %

8.0 km/h aus 117

16.1 km/h aus N

3.4 C

2.3 C

2.3 C

4.3 C

0 W/m

0.00 mm

21:25

4.3 C

1004.1 hpa

94 %

6.4 km/h aus 116

19.3 km/h aus N

3.5 C

2.8 C

2.8 C

4.3 C

0 W/m

0.00 mm

21:30

4.3 C

1004.1 hpa

94 %

8.0 km/h aus 113

11.3 km/h aus N

3.5 C

2.3 C

2.3 C

4.3 C

0 W/m

0.00 mm

21:35

4.3 C

1004.1 hpa

94 %

6.4 km/h aus 116

9.7 km/h aus N

3.5 C

2.8 C

2.8 C

4.3 C

0 W/m

0.00 mm

21:40

4.4 C

1004.1 hpa

94 %

8.0 km/h aus 116

11.3 km/h aus NW

3.5 C

2.5 C

2.4 C

4.4 C

0 W/m

0.00 mm

21:45

4.4 C

1003.7 hpa

94 %

6.4 km/h aus 117

9.7 km/h aus NW

3.5 C

2.9 C

2.9 C

4.4 C

0 W/m

0.00 mm

21:50

4.4 C

1003.7 hpa

94 %

4.8 km/h aus 117

11.3 km/h aus N

3.5 C

3.6 C

3.5 C

4.4 C

0 W/m

0.00 mm

21:55

4.4 C

1003.7 hpa

94 %

6.4 km/h aus 116

12.9 km/h aus NNW

3.5 C

2.9 C

2.9 C

4.4 C

0 W/m

0.00 mm

22:00

4.4 C

1003.5 hpa

94 %

6.4 km/h aus 114

11.3 km/h aus N

3.5 C

2.9 C

2.9 C

4.4 C

0 W/m

0.00 mm

22:05

4.4 C

1003.5 hpa

94 %

6.4 km/h aus 115

11.3 km/h aus N

3.5 C

2.9 C

2.9 C

4.4 C

0 W/m

0.00 mm

22:10

4.4 C

1003.5 hpa

94 %

6.4 km/h aus 117

12.9 km/h aus N

3.6 C

3.0 C

2.9 C

4.5 C

0 W/m

0.00 mm

22:15

4.4 C

1003.1 hpa

94 %

9.7 km/h aus 117

16.1 km/h aus NNW

3.6 C

2.2 C

2.1 C

4.5 C

0 W/m

0.00 mm

22:20

4.4 C

1003.1 hpa

94 %

6.4 km/h aus 117

14.5 km/h aus N

3.6 C

3.0 C

2.9 C

4.5 C

0 W/m

0.00 mm

22:25

4.4 C

1003.1 hpa

94 %

6.4 km/h aus 116

11.3 km/h aus N

3.6 C

3.0 C

2.9 C

4.5 C

0 W/m

0.00 mm

22:30

4.4 C

1002.7 hpa

95 %

8.0 km/h aus 116

16.1 km/h aus N

3.7 C

2.6 C

2.5 C

4.5 C

0 W/m

0.00 mm

22:35

4.4 C

1002.7 hpa

95 %

8.0 km/h aus 114

16.1 km/h aus N

3.7 C

2.6 C

2.5 C

4.5 C

0 W/m

0.00 mm

22:40

4.4 C

1002.7 hpa

95 %

8.0 km/h aus 115

17.7 km/h aus NNW

3.7 C

2.6 C

2.5 C

4.5 C

0 W/m

0.00 mm

22:45

4.5 C

1003.1 hpa

95 %

4.8 km/h aus 117

11.3 km/h aus NNW

3.8 C

3.7 C

3.6 C

4.6 C

0 W/m

0.00 mm

22:50

4.5 C

1003.1 hpa

95 %

6.4 km/h aus 117

11.3 km/h aus NNW

3.8 C

3.1 C

3.0 C

4.6 C

0 W/m

0.00 mm

22:55

4.5 C

1003.1 hpa

95 %

6.4 km/h aus 117

14.5 km/h aus NNW

3.8 C

3.1 C

3.0 C

4.6 C

0 W/m

0.00 mm

23:00

4.5 C

1002.6 hpa

95 %

9.7 km/h aus 117

19.3 km/h aus N

3.8 C

2.2 C

2.2 C

4.6 C

0 W/m

0.00 mm

23:05

4.6 C

1002.6 hpa

95 %

9.7 km/h aus 116

17.7 km/h aus N

3.8 C

2.3 C

2.2 C

4.6 C

0 W/m

0.00 mm

23:10

4.6 C

1002.6 hpa

95 %

6.4 km/h aus 113

14.5 km/h aus N

3.8 C

3.1 C

3.1 C

4.6 C

0 W/m

0.00 mm

23:15

4.6 C

1002.6 hpa

95 %

8.0 km/h aus 116

17.7 km/h aus N

3.8 C

2.7 C

2.6 C

4.6 C

0 W/m

0.00 mm

23:20

4.6 C

1002.6 hpa

95 %

6.4 km/h aus 116

11.3 km/h aus NNE

3.8 C

3.1 C

3.1 C

4.6 C

0 W/m

0.00 mm

23:25

4.6 C

1002.6 hpa

95 %

6.4 km/h aus 117

12.9 km/h aus N

3.8 C

3.1 C

3.1 C

4.6 C

0 W/m

0.00 mm

23:30

4.6 C

1002.5 hpa

95 %

6.4 km/h aus 116

11.3 km/h aus N

3.9 C

3.2 C

3.2 C

4.7 C

0 W/m

0.00 mm

23:35

4.6 C

1002.5 hpa

95 %

6.4 km/h aus 116

11.3 km/h aus N

3.9 C

3.2 C

3.2 C

4.7 C

0 W/m

0.00 mm

23:40

4.6 C

1002.5 hpa

95 %

8.0 km/h aus 115

20.9 km/h aus NNE

3.9 C

2.7 C

2.7 C

4.7 C

0 W/m

0.00 mm

23:45

4.7 C

1002.3 hpa

95 %

9.7 km/h aus 115

17.7 km/h aus NNW

3.9 C

2.4 C

2.3 C

4.7 C

0 W/m

0.00 mm

23:50

4.7 C

1002.3 hpa

95 %

6.4 km/h aus 117

17.7 km/h aus N

3.9 C

3.3 C

3.2 C

4.7 C

0 W/m

0.00 mm

23:55

4.7 C

1002.3 hpa

95 %

6.4 km/h aus 117

9.7 km/h aus N

3.9 C

3.3 C

3.2 C

4.7 C

0 W/m

0.00 mm